Regional Weather Roundup
Issued by NWS Columbia, SC

Home | Current Version | Previous Version | Text Only | Print | Product List | Glossary On
Versions: 1 2 3 4 5 6 7 8 9 10 11 12 13 14 15 16 17 18 19 20 21 22 23 24 25 26 27 28 29 30 31 32 33 34 35 36 37 38 39 40 41 42 43 44 45 46 47
000
ASUS42 KCAE 030210
RWRCAE
REGIONAL WEATHER ROUNDUP
NATIONAL WEATHER SERVICE COLUMBIA SC
1000 PM EDT THU JUL 02 2015

NOTE: "FAIR" INDICATES FEW OR NO CLOUDS BELOW 12,000 FEET WITH NO
SIGNIFICANT WEATHER AND/OR OBSTRUCTIONS TO VISIBILITY.

NOT ALL STATIONS ARE QUALITY CONTROLLED BY THE NATIONAL
WEATHER SERVICE. USE DATA WITH CAUTION...ESPECIALLY
DEWPOINT OBSERVATIONS.

SCZ001>056-GAZ040-063>065-077-030300-
...UPSTATE SOUTH CAROLINA...

CITY           SKY/WX    TMP DP  RH WIND       PRES   REMARKS
ANDERSON       MOCLDY    70  69  97 SW6       29.97R
SPARTANBURG      N/A     72  70  94 SW3       29.94S
CLEMSON        MOCLDY    72  68  87 W6        29.97R
GREENVILLE     MOCLDY    71  67  87 W6        29.96S
GREENWOOD      CLOUDY    69  67  93 SW8       29.97R
GREER          MOCLDY    72  68  87 SW8       29.94R
ROCK HILL      PTCLDY    71  67  87 SW7       29.95R
CHESTER        CLOUDY    72  70  94 CALM      29.96R


...CENTRAL SOUTH CAROLINA...

CITY           SKY/WX    TMP DP  RH WIND       PRES   REMARKS
COLUMBIA APT   CLOUDY    71  67  87 SW3       29.95R
COLUMBIA OWENS CLOUDY    71  68  90 CALM      29.97R
DARLINGTON     CLOUDY    72  66  83 SW8       29.98R
FLORENCE       CLOUDY    72  70  93 SW7       29.98R
MCENTIRE ANGB  MOCLDY    70  68  95 S6        29.97R
ORANGEBURG     CLOUDY    71  68  90 S9        29.99S
SUMTER SHAW    CLOUDY    71  69  94 S8        29.96R
NEWBERRY       CLOUDY    64  63  94 SW5       29.98R
BARNWELL       FAIR      72  70  94 SW6       30.00R
MANNING        LGT RAIN  70  70 100 SW7       29.99S
CAMDEN         FAIR      70  70 100 VRB6      29.97R
LANCASTER      MOCLDY    68  68 100 CALM      29.95R
WINNSBORO      CLOUDY    70  68  94 SW6       29.95R


...EASTERN AND COASTAL SOUTH CAROLINA...

CITY           SKY/WX    TMP DP  RH WIND       PRES   REMARKS
MYRTLE BEACH   TSTM      72  66  83 W8        30.01R
N MYRTLE BCH   TSTM      72  69  90 SW8       29.98F
CONWAY         RAIN      70  70 100 S6        29.99S
MARION         FAIR      72  72 100 SW5       29.99R
HARTSVILLE     FAIR      70  68  94 S6        29.96R
FLORENCE       CLOUDY    72  70  93 SW7       29.98R
DARLINGTON     CLOUDY    72  66  83 SW8       29.98R
CHARLESTON APT TSTM      71  69  93 SW7       30.03F FOG
MOUNT PLEASANT HVY RAIN  72  70  94 W6        30.04F
BEAUFORT       LGT RAIN  72  71  97 S6        30.03F


...EASTERN GEORGIA...

CITY           SKY/WX    TMP DP  RH WIND       PRES   REMARKS
AUGUSTA BUSH F CLOUDY    70  69  97 SW7       29.98R
AUGUSTA DANIEL CLOUDY    71  68  90 S10       29.99R
THOMSON        CLOUDY    72  72 100 S3        30.03S
WASHINGTON     CLOUDY    72  72 100 S5        29.98F
CLAXTON        FAIR      72  72 100 CALM      30.02F
SYLVANIA       CLOUDY    73  73 100 CALM      30.03F
SAVANNAH       LGT RAIN  72  69  90 CALM      30.04F


...SOUTHERN NORTH CAROLINA...

CITY           SKY/WX    TMP DP  RH WIND       PRES   REMARKS
CHARLOTTE      MOCLDY    73  65  75 W6        29.94R
MONROE         MOCLDY    71  66  84 SW7       29.93R
WADESBORO      MOCLDY    73  67  81 S8        29.94R
ROCKINGHAM     MOCLDY    71  68  90 SW7       29.95R
ASHEVILLE      PTCLDY    69  65  86 CALM      30.01R

$$



USA.gov is the U.S. government's official web portal to all federal, state and local government web resources and services.